Moses Lake, WA

9:33 PM PDT on September 25, 2016 (GMT -0700)
Grant County International

Weather History for KMWH - August, 2013

Change the Weather History Date:

Thursday, August 29, 2013

  Actual Average Record
Temperature  
Mean Temperature 74 °F 68 °F  
Max Temperature 87 °F 85 °F 96 °F (1998)
Min Temperature 61 °F 53 °F 37 °F (1984)
Degree Days  
Heating Degree Days 0 1  
Month to date heating degree days 0 6  
Since 1 June heating degree days 49 69  
Since 1 July heating degree days 0 14  
Cooling Degree Days 9 4  
Month to date cooling degree days 267 207  
Year to date cooling degree days 800 561  
Since 1 June cooling degree days 750 536  
Growing Degree Days 24 (Base 50)    
Moisture  
Dew Point 54 °F    
Average Humidity 51    
Maximum Humidity 72    
Minimum Humidity 30    
Precipitation  
Precipitation T in 0.00 in 0.10 in (1986)
Month to date precipitation 0.56 0.23  
Year to date precipitation 4.31 5.41  
Sea Level Pressure  
Sea Level Pressure 29.89 in    
Wind  
Wind Speed 7 mph (WNW)    
Max Wind Speed 20 mph    
Max Gust Speed 24 mph    
Visibility 10 miles    
Events      
T = Trace of Precipitation, MM = Missing Value Source: NWS Daily Summary

Daily Weather History Graph

Daily Weather History Graph

Search for Another Location

Airport or City:

Trip Planner

Search our weather history database for the weather conditions in past years. The results will help you decide how hot, cold, wet, or windy it might be!

Date:

Astronomy

Aug. 29, 2013 Rise Set
Actual Time 6:12 AM PDT 7:42 PM PDT
Civil Twilight 5:40 AM PDT 8:14 PM PDT
Nautical Twilight 5:02 AM PDT 8:52 PM PDT
Astronomical Twilight 4:20 AM PDT 9:34 PM PDT
Moon No Moon Rise 3:27 PM PDT (8/29)
Length of Visible Light 14h 33m
Length of Day
13h 29m
Last Quarter, 37% of the Moon is Illuminated
Aug 29
Last Quarter
Sep 5
New
Sep 12
First Quarter
Sep 19
Full
Sep 26
Last Quarter

Hourly Weather History & Observations

Time (PDT) Temp. Heat Index Dew Point Humidity Pressure Visibility Wind Dir Wind Speed Gust Speed Precip Events Conditions
12:52 AM 71.1 °F - 53.1 °F 53% 29.85 in 10.0 mi North 6.9 mph - N/A   Clear
1:52 AM 69.1 °F - 53.1 °F 57% 29.84 in 10.0 mi North 5.8 mph - N/A   Clear
2:52 AM 66.9 °F - 54.0 °F 63% 29.83 in 10.0 mi North 4.6 mph - N/A   Clear
3:52 AM 64.9 °F - 54.0 °F 68% 29.83 in 10.0 mi East 3.5 mph - N/A   Clear
4:52 AM 62.1 °F - 52.0 °F 70% 29.83 in 10.0 mi North 3.5 mph - N/A   Clear
5:52 AM 63.0 °F - 52.0 °F 67% 29.84 in 10.0 mi Calm Calm - N/A   Clear
6:52 AM 63.0 °F - 53.1 °F 70% 29.86 in 10.0 mi Calm Calm - N/A   Clear
7:52 AM 64.9 °F - 53.1 °F 65% 29.86 in 10.0 mi Calm Calm - N/A   Clear
8:52 AM 71.1 °F - 55.0 °F 57% 29.86 in 10.0 mi NNE 3.5 mph - N/A   Clear
9:52 AM 78.1 °F - 55.0 °F 45% 29.86 in 10.0 mi NNW 5.8 mph - N/A   Clear
10:52 AM 81.0 °F 80.5 °F 54.0 °F 39% 29.86 in 10.0 mi NNE 3.5 mph - N/A   Clear
11:52 AM 81.0 °F 80.5 °F 54.0 °F 39% 29.86 in 10.0 mi WSW 4.6 mph - N/A   Clear
12:52 PM 84.0 °F 82.6 °F 54.0 °F 35% 29.87 in 10.0 mi SW 8.1 mph - N/A   Clear
1:52 PM 84.0 °F 82.5 °F 53.1 °F 34% 29.88 in 10.0 mi SSW 9.2 mph - N/A   Clear
2:16 PM 86.0 °F 84.5 °F 55.4 °F 35% 29.92 in 10.0 mi West 16.1 mph - N/A   Clear
2:52 PM 86.0 °F 84.2 °F 54.0 °F 33% 29.90 in 10.0 mi West 17.3 mph - N/A   Clear
3:52 PM 86.0 °F 84.2 °F 54.0 °F 33% 29.92 in 10.0 mi West 16.1 mph 20.7 mph N/A   Clear
4:52 PM 86.0 °F - 51.1 °F 30% 29.92 in 10.0 mi West 15.0 mph 19.6 mph N/A   Clear
5:52 PM 84.0 °F - 52.0 °F 33% 29.91 in 10.0 mi West 12.7 mph 19.6 mph N/A   Clear
6:52 PM 82.0 °F - 51.1 °F 34% 29.91 in 10.0 mi WNW 6.9 mph - N/A   Clear
7:52 PM 78.1 °F - 51.1 °F 39% 29.93 in 10.0 mi West 5.8 mph - N/A   Clear
8:52 PM 78.1 °F - 54.0 °F 43% 29.95 in 10.0 mi Calm Calm - N/A   Mostly Cloudy
9:52 PM 72.0 °F - 61.0 °F 68% 29.95 in 10.0 mi South 5.8 mph - 0.00 in   Mostly Cloudy
10:52 PM 72.0 °F - 59.0 °F 64% 29.96 in 10.0 mi WSW 8.1 mph - N/A   Scattered Clouds
11:52 PM 72.0 °F - 55.9 °F 57% 29.97 in 10.0 mi WSW 8.1 mph - N/A   Mostly Cloudy